Weather History for Willmar, MN

Change the Weather History Date:

Monday, April 22, 2013

  Actual Average (KLJF) Record (KLJF)
Temperature  
Mean Temperature 37 °F -  
Max Temperature 41 °F 60 °F 91 °F (1980)
Min Temperature 33 °F 38 °F 22 °F (1967)
Degree Days  
Heating Degree Days 28    
Moisture  
Dew Point 27 °F    
Average Humidity 66    
Maximum Humidity 75    
Minimum Humidity 49    
Precipitation  
Precipitation 0.05 in - - ()
Sea Level Pressure  
Sea Level Pressure 30.21 in    
Wind  
Wind Speed 10 mph (North)    
Max Wind Speed 22 mph    
Max Gust Speed 25 mph    
Visibility 7 miles    
Events Snow    
Averages and records for this station are not official NWS values.
T = Trace of Precipitation, MM = Missing Value Source: NWS Daily Summary

Daily Weather History Graph

Daily Weather History Graph

Search for Another Location

Airport:

Trip Planner

Search our weather history database for the weather conditions in past years. The results will help you decide how hot, cold, wet, or windy it might be!

Date:

Astronomy

Apr. 22, 2013 Rise Set
Actual Time 6:23 AM CDT 8:15 PM CDT
Civil Twilight 5:51 AM CDT 8:46 PM CDT
Nautical Twilight 5:13 AM CDT 9:25 PM CDT
Astronomical Twilight 4:31 AM CDT 10:07 PM CDT
Moon 4:57 PM CDT (4/22) 4:27 AM CDT (4/22)
Length of Visible Light 14h 55m
Length of Day
13h 52m
Waxing Gibbous, 88% of the Moon is Illuminated
Apr 22
Waxing Gibbous
Apr 25
Full
May 2
Last Quarter
May 9
New
May 17
First Quarter

Hourly Weather History & Observations

Time (CDT) Temp. Windchill Dew Point Humidity Pressure Visibility Wind Dir Wind Speed Gust Speed Precip Events Conditions
12:15 AM 41.0 °F 33.9 °F 30.2 °F 65% 30.17 in 10.0 mi NNW 12.7 mph - N/A   Overcast
12:35 AM 41.0 °F 34.7 °F 30.2 °F 65% 30.16 in 10.0 mi NNW 10.4 mph - N/A   Overcast
12:56 AM 39.2 °F 32.0 °F 30.2 °F 70% 30.16 in 10.0 mi NW 11.5 mph - N/A   Overcast
1:15 AM 39.2 °F 32.5 °F 28.4 °F 65% 30.17 in 10.0 mi NW 10.4 mph - N/A   Overcast
1:35 AM 39.2 °F 32.5 °F 28.4 °F 65% 30.17 in 10.0 mi NNW 10.4 mph - N/A   Overcast
1:56 AM 39.2 °F 34.2 °F 28.4 °F 65% 30.19 in 10.0 mi NNW 6.9 mph - N/A   Overcast
2:15 AM 39.2 °F 34.2 °F 28.4 °F 65% 30.18 in 10.0 mi NNW 6.9 mph - N/A   Overcast
2:35 AM 39.2 °F - 28.4 °F 65% 30.18 in 10.0 mi Calm Calm - N/A   Overcast
2:56 AM 39.2 °F 35.9 °F 28.4 °F 65% 30.19 in 10.0 mi NW 4.6 mph - N/A   Overcast
3:15 AM 37.4 °F 32.8 °F 28.4 °F 70% 30.20 in 10.0 mi NW 5.8 mph - N/A   Overcast
3:35 AM 39.2 °F 35.9 °F 28.4 °F 65% 30.20 in 10.0 mi NW 4.6 mph - N/A   Overcast
3:56 AM 39.2 °F 33.6 °F 28.4 °F 65% 30.20 in 10.0 mi North 8.1 mph - N/A   Overcast
4:15 AM 39.2 °F 35.0 °F 26.6 °F 61% 30.20 in 10.0 mi North 5.8 mph - N/A   Overcast
4:35 AM 39.2 °F 35.9 °F 26.6 °F 61% 30.20 in 10.0 mi North 4.6 mph - N/A   Overcast
4:55 AM 37.4 °F 34.9 °F 26.6 °F 65% 30.21 in 10.0 mi NNE 3.5 mph - N/A   Overcast
5:15 AM 37.4 °F 33.8 °F 24.8 °F 60% 30.21 in 10.0 mi North 4.6 mph - N/A   Overcast
5:35 AM 37.4 °F 32.1 °F 26.6 °F 65% 30.21 in 10.0 mi North 6.9 mph - N/A   Overcast
5:55 AM 37.4 °F 32.1 °F 24.8 °F 60% 30.22 in 10.0 mi North 6.9 mph - N/A   Overcast
6:15 AM 37.4 °F 31.4 °F 24.8 °F 60% 30.22 in 10.0 mi North 8.1 mph - N/A   Overcast
6:35 AM 37.4 °F 32.1 °F 24.8 °F 60% 30.22 in 10.0 mi NNE 6.9 mph - N/A   Overcast
6:55 AM 37.4 °F 32.8 °F 26.6 °F 65% 30.21 in 10.0 mi North 5.8 mph - N/A   Mostly Cloudy
7:15 AM 37.4 °F 30.8 °F 26.6 °F 65% 30.20 in 10.0 mi North 9.2 mph - N/A   Scattered Clouds
7:35 AM 37.4 °F 30.3 °F 24.8 °F 60% 30.20 in 10.0 mi North 10.4 mph - N/A   Clear
7:55 AM 37.4 °F 31.4 °F 26.6 °F 65% 30.21 in 10.0 mi NNE 8.1 mph - N/A   Clear
8:15 AM 37.4 °F 29.8 °F 24.8 °F 60% 30.21 in 10.0 mi North 11.5 mph - N/A   Clear
8:35 AM 37.4 °F 30.3 °F 26.6 °F 65% 30.21 in 10.0 mi NNE 10.4 mph - N/A   Clear
8:55 AM 39.2 °F 32.0 °F 26.6 °F 61% 30.22 in 10.0 mi North 11.5 mph - N/A   Clear
9:14 AM 39.2 °F 31.6 °F 26.6 °F 61% 30.22 in 10.0 mi North 12.7 mph - N/A   Scattered Clouds
9:35 AM 39.2 °F 31.6 °F 26.6 °F 61% 30.23 in 10.0 mi North 12.7 mph - N/A   Scattered Clouds
9:55 AM 39.2 °F 32.0 °F 24.8 °F 56% 30.24 in 10.0 mi North 11.5 mph - N/A   Scattered Clouds
10:15 AM 39.2 °F 32.5 °F 24.8 °F 56% 30.25 in 10.0 mi North 10.4 mph - N/A   Scattered Clouds
10:35 AM 39.2 °F 33.0 °F 24.8 °F 56% 30.26 in 10.0 mi North 9.2 mph - N/A   Clear
10:55 AM 39.2 °F 31.6 °F 24.8 °F 56% 30.25 in 10.0 mi NNE 12.7 mph - N/A   Clear
11:15 AM 41.0 °F 33.1 °F 26.6 °F 57% 30.23 in 10.0 mi NNE 15.0 mph - N/A   Clear
11:35 AM 39.2 °F 32.5 °F 26.6 °F 61% 30.23 in 10.0 mi North 10.4 mph - N/A   Clear
11:55 AM 39.2 °F 30.5 °F 26.6 °F 61% 30.22 in 10.0 mi North 16.1 mph - N/A   Clear
12:15 PM 39.2 °F 29.6 °F 26.6 °F 61% 30.21 in 10.0 mi NNE 19.6 mph - N/A   Clear
12:35 PM 41.0 °F 31.4 °F 26.6 °F 57% 30.18 in 10.0 mi NNE 21.9 mph 25.3 mph N/A   Clear
12:55 PM 39.2 °F 31.6 °F 24.8 °F 56% 30.21 in 10.0 mi North 12.7 mph - N/A   Clear
1:15 PM 39.2 °F 30.2 °F 21.2 °F 49% 30.22 in 10.0 mi North 17.3 mph - N/A   Clear
1:35 PM 39.2 °F 31.2 °F 24.8 °F 56% 30.24 in 2.0 mi North 13.8 mph 23.0 mph N/A   Mostly Cloudy
1:55 PM 37.4 °F 28.2 °F 26.6 °F 65% 30.24 in 0.8 mi North 16.1 mph 20.7 mph N/A Snow Light Snow
2:15 PM 37.4 °F 27.8 °F 28.4 °F 70% 30.23 in 0.5 mi NNE 17.3 mph - N/A Snow Light Snow
2:35 PM 37.4 °F 28.9 °F 28.4 °F 70% 30.21 in 0.8 mi NNE 13.8 mph - N/A Snow Light Snow
2:55 PM 37.4 °F 28.9 °F 28.4 °F 70% 30.21 in 0.8 mi NNE 13.8 mph 19.6 mph N/A Snow Light Snow
3:15 PM 35.6 °F 26.2 °F 28.4 °F 75% 30.20 in 0.5 mi NNE 15.0 mph - N/A Snow Snow
3:35 PM 35.6 °F 27.1 °F 28.4 °F 75% 30.20 in 0.2 mi North 12.7 mph - N/A Snow Snow
3:55 PM 35.6 °F 27.5 °F 28.4 °F 75% 30.21 in 0.5 mi North 11.5 mph - 0.02 in Snow Snow
4:15 PM 35.6 °F 27.5 °F 28.4 °F 75% 30.20 in 0.2 mi North 11.5 mph - 0.01 in Snow Snow
4:35 PM 35.6 °F 25.9 °F 28.4 °F 75% 30.20 in 0.5 mi North 16.1 mph - 0.02 in Snow Snow
4:55 PM 35.6 °F 26.2 °F 28.4 °F 75% 30.20 in 0.5 mi North 15.0 mph - 0.02 in Snow Snow
5:15 PM 35.6 °F 25.5 °F 28.4 °F 75% 30.21 in 1.0 mi North 17.3 mph 21.9 mph N/A Snow Light Snow
5:35 PM 35.6 °F 27.1 °F 28.4 °F 75% 30.22 in 1.2 mi North 12.7 mph - N/A Snow Light Snow
5:55 PM 35.6 °F 26.2 °F 28.4 °F 75% 30.21 in 1.2 mi North 15.0 mph - N/A Snow Light Snow
6:15 PM 35.6 °F 27.1 °F 28.4 °F 75% 30.20 in 1.2 mi North 12.7 mph - N/A Snow Light Snow
6:36 PM 35.6 °F 28.6 °F 28.4 °F 75% 30.21 in 2.5 mi North 9.2 mph - N/A Snow Light Snow
6:55 PM 35.6 °F 27.5 °F 28.4 °F 75% 30.22 in 1.8 mi North 11.5 mph - N/A Snow Light Snow
7:15 PM 35.6 °F - 28.4 °F 75% 30.23 in 1.5 mi Calm Calm - 0.01 in Snow Light Snow
7:35 PM 35.6 °F 26.6 °F 28.4 °F 75% 30.23 in 1.5 mi North 13.8 mph - 0.01 in Snow Light Snow
7:55 PM 35.6 °F 25.9 °F 28.4 °F 75% 30.22 in 1.5 mi North 16.1 mph 21.9 mph 0.01 in Snow Light Snow
8:15 PM 35.6 °F 24.8 °F 28.4 °F 75% 30.23 in 1.2 mi North 19.6 mph - N/A Snow Light Snow
8:35 PM 35.6 °F 25.9 °F 28.4 °F 75% 30.22 in 2.5 mi North 16.1 mph 23.0 mph N/A Snow Light Snow
8:55 PM 35.6 °F 26.6 °F 28.4 °F 75% 30.23 in 2.5 mi NNW 13.8 mph - N/A Snow Light Snow
9:14 PM 35.6 °F 26.2 °F 26.6 °F 70% 30.23 in 5.0 mi NNW 15.0 mph - N/A Snow Light Snow
9:35 PM 35.6 °F 26.2 °F 26.6 °F 70% 30.24 in 10.0 mi NNW 15.0 mph - N/A   Scattered Clouds
9:55 PM 35.6 °F 27.5 °F 26.6 °F 70% 30.25 in 10.0 mi NNW 11.5 mph - N/A Snow Light Snow
10:15 PM 35.6 °F 28.6 °F 24.8 °F 65% 30.25 in 10.0 mi NNW 9.2 mph - N/A   Clear
10:35 PM 35.6 °F 28.6 °F 23.0 °F 60% 30.25 in 10.0 mi NNW 9.2 mph - N/A   Scattered Clouds
10:55 PM 35.6 °F 28.6 °F 23.0 °F 60% 30.24 in 10.0 mi NNW 9.2 mph - N/A   Overcast
11:15 PM 35.6 °F 28.0 °F 23.0 °F 60% 30.23 in 10.0 mi NNW 10.4 mph - N/A   Overcast
11:35 PM 33.8 °F 25.3 °F 21.2 °F 60% 30.24 in 10.0 mi NNW 11.5 mph - N/A   Mostly Cloudy
11:55 PM 33.8 °F 24.8 °F 21.2 °F 60% 30.24 in 10.0 mi NNW 12.7 mph - N/A   Mostly Cloudy